Погода в Тее

Россия / Красноярский край     60°22′28″N   92°37′52″E
темп.,
°C
ветер,
м/с
пор.,
м/с
влажн.,
%
обл.,
%
осадки,
мм/ч
давл.,
гПа
погр.,
м
18 июня, пт
пт1801:00+12ююв229695 1.0 100619
04:00+13юв229882 2.6 100460
07:00+14юв1393100 3.1 1004166
10:00+14ююв1396100 2.1 1004172
13:00+17ююз2484100 4.1 1003629
16:00+19юз347075 1.4 10021038
19:00+19ююз13641 2.9 1002716
22:00+13ююв119155 1.0 100210
19 июня, сб
сб1901:00+11ююв22935 1.1 100215
04:00+10ю11935 0.0 100210
07:00+15ююв12800 0.0 1001150
10:00+22юз11453 0.0 10011291
13:00+25зюз123326 0.0 10002400
16:00+26сз023021 0.0 9992576
19:00+24в334137 0.0 998873
22:00+17ююв236796 0.0 100059
20 июня, вс
вс2001:00+13юв2287100 0.0 100022
04:00+12вюв228647 0.0 100126
07:00+18ююв136533 0.0 1000305
10:00+23ююв244960 0.0 10001429
13:00+25ююз344795 0.0 10001810
16:00+19зюз4788100 1.9 1001555
19:00+20з356644 1.9 1002986
22:00+15зюз238284 0.0 100459
21 июня, пн
пн2101:00+13юз1186100 0.0 100626
04:00+12ссз2587100 0.1 1006416
07:00+11сз2594100 1.1 1007380
10:00+11ссз2693100 0.6 1007502
13:00+11сз3491100 0.8 1006583
16:00+9зсз2694100 1.2 1006488
19:00+8зсз2495100 2.6 1006416
22:00+8зюз2497100 0.8 1005317
22 июня, вт
вт2201:00+7зюз3899100 8.8 1004441
04:00+7юз4998100 3.3 1004575
07:00+7юз41098100 4.3 1005614
10:00+8юз31097100 1.1 1006559
13:00+13юз3571100 1.2 1006765
16:00+18юз465385 0.3 10051784
19:00+17ююз355961 0.6 10061357
22:00+12ююв258896 0.4 1007101